User: anonymous   Login
Location: La Tine
(46.4708°N, 7.0525°E)
Time: 16:19:18
(UTC+00:00)
Language:

HJ-1C - Orbit

View from above orbital plane
View from above orbital plane
View from above satellite
View from above satellite

Ground track
Ground track

The orbit data is extracted from the following two-line orbital elements,

1 38997U 12064A   21173.26961249  .00002847  00000-0  63136-4 0  9996
2 38997  97.1184 202.1303 0011251  98.5771 324.3239 15.44503897482822
Epoch (UTC): 22 June 2021 06:28:14
Eccentricity: 0.0011251
inclination: 97.1184°
perigee height: 425 km
apogee height: 440 km
right ascension of ascending node: 202.1303°
argument of perigee: 98.5771°
revolutions per day: 15.44503897
mean anomaly at epoch: 324.3239°
orbit number at epoch: 48282

The dashed part of the orbit path shows where the satellite is in the earth's shadow,  

DLR